Location: Hamburg
(53.5500°N, 10.0000°E)
Time: 06:06:49
(UTC+01:00)

A-11 Canister half - All Passes

Search period start: 23 February 2017 00:00
Search period end: 05 March 2017 00:00
Orbit: 1528 x 1682 km, 47.3° (Epoch: 21 February)

Date Brightness Start Highest point End Pass type
(mag) Time Alt. Az. Time Alt. Az. Time Alt. Az.
23 Feb - 00:21:05 10° W 00:29:43 44° SSW 00:38:22 10° SE visible
23 Feb - 02:26:47 10° W 02:32:49 20° SW 02:38:54 10° S night (unlit)
23 Feb - 17:50:00 10° S 17:56:47 22° SE 18:03:27 10° E daylight
23 Feb - 19:51:09 10° SW 20:00:03 47° SSE 20:08:47 10° E visible
23 Feb - 21:54:59 10° WSW 22:04:09 60° S 22:13:14 10° ESE visible
23 Feb - 23:59:31 10° W 00:08:12 46° SSW 00:16:53 10° SE visible
24 Feb - 02:05:05 10° W 02:11:21 21° SW 02:17:39 10° S night (unlit)
24 Feb - 17:28:41 10° S 17:35:18 21° SE 17:41:47 10° E daylight
24 Feb - 19:29:39 10° SW 19:38:31 46° SSE 19:47:14 10° E visible
24 Feb - 21:33:25 10° WSW 21:42:37 60° S 21:51:41 10° ESE visible
24 Feb - 23:37:57 10° W 23:46:41 47° SSW 23:55:24 10° SE visible
25 Feb - 01:43:25 10° W 01:49:52 22° SW 01:56:22 10° S night (unlit)
25 Feb - 17:07:24 10° S 17:13:49 20° SE 17:20:07 10° E daylight
25 Feb - 19:08:08 10° SW 19:16:59 45° SSE 19:25:40 10° E visible
25 Feb - 21:11:51 10° WSW 21:21:04 60° S 21:30:08 10° ESE visible
25 Feb - 23:16:22 10° W 23:25:09 48° SSW 23:33:54 10° SE visible
26 Feb - 01:21:45 10° W 01:28:24 23° SW 01:35:05 10° S visible
26 Feb - 16:46:07 10° S 16:52:20 20° SE 16:58:26 10° E daylight
26 Feb - 18:46:39 10° SW 18:55:28 44° SSE 19:04:06 10° E visible
26 Feb - 20:50:17 10° WSW 20:59:31 60° S 21:08:36 10° ESE visible
26 Feb - 22:54:48 10° W 23:03:38 49° SSW 23:12:25 10° SE visible
27 Feb - 01:00:06 10° W 01:06:56 24° SW 01:13:46 10° S visible
27 Feb - 16:24:52 10° S 16:30:51 19° SE 16:36:45 10° E daylight
27 Feb - 18:25:08 10° SW 18:33:56 43° SSE 18:42:33 10° E visible
27 Feb - 20:28:44 10° WSW 20:37:58 60° S 20:47:03 10° E visible
27 Feb - 22:33:13 10° W 22:42:07 50° SSW 22:50:55 10° SE visible
28 Feb - 00:38:27 10° W 00:45:26 25° SW 00:52:27 10° S visible
28 Feb - 16:03:37 10° SSE 16:09:23 18° SE 16:15:02 10° E daylight
28 Feb - 18:03:38 10° SW 18:12:25 42° SSE 18:20:59 10° E daylight
28 Feb - 20:07:09 10° WSW 20:16:25 60° S 20:25:30 10° E visible
28 Feb - 22:11:38 10° W 22:20:35 51° SSW 22:29:25 10° SE visible
01 Mar - 00:16:48 10° W 00:23:58 26° SW 00:31:06 10° S visible
01 Mar - 15:42:25 10° SSE 15:47:54 17° SE 15:53:18 10° E daylight
01 Mar - 17:42:09 10° SW 17:50:53 41° SSE 17:59:25 10° E daylight
01 Mar - 19:45:36 10° WSW 19:54:52 60° S 20:03:57 10° E visible
01 Mar - 21:50:04 10° W 21:59:03 52° SSW 22:07:55 10° SE visible
01 Mar - 23:55:10 10° W 00:02:29 27° SW 00:09:46 10° S visible
02 Mar - 15:21:15 10° SSE 15:26:26 16° SE 15:31:32 10° E daylight
02 Mar - 17:20:40 10° SW 17:29:22 40° SSE 17:37:51 10° E daylight
02 Mar - 19:24:01 10° WSW 19:33:19 59° S 19:42:25 10° E visible
02 Mar - 21:28:30 10° W 21:37:31 53° SSW 21:46:25 10° SE visible
02 Mar - 23:33:32 10° W 23:40:59 28° SW 23:48:24 10° SSE visible
03 Mar - 15:00:06 10° SSE 15:04:58 15° SE 15:09:45 10° E daylight
03 Mar - 16:59:11 10° SSW 17:07:51 39° SSE 17:16:17 10° E daylight
03 Mar - 19:02:28 10° WSW 19:11:47 59° S 19:20:52 10° E visible
03 Mar - 21:06:54 10° W 21:15:59 54° SSW 21:24:54 10° ESE visible
03 Mar - 23:11:55 10° W 23:19:30 29° SW 23:27:02 10° SSE visible
04 Mar - 14:39:01 10° SSE 14:43:30 14° SE 14:47:55 10° E daylight
04 Mar - 16:37:43 10° SSW 16:46:19 38° SSE 16:54:43 10° E daylight
04 Mar - 18:40:54 10° WSW 18:50:13 59° S 18:59:19 10° E visible
04 Mar - 20:45:20 10° W 20:54:27 54° SSW 21:03:24 10° ESE visible
04 Mar - 22:50:18 10° W 22:58:00 30° SW 23:05:40 10° SSE visible
